Gallup, NM

6:39 AM MDT on September 19, 2017 (GMT -0600)
Gallup Municipal

Weather History for KGUP - January, 2014

Change the Weather History Date:

Wednesday, January 15, 2014

  Actual Average Record
Temperature  
Mean Temperature 32 °F -  
Max Temperature 55 °F 44 °F 64 °F (2000)
Min Temperature 10 °F 13 °F -16 °F (1997)
Degree Days  
Heating Degree Days 32    
Moisture  
Dew Point 6 °F    
Average Humidity 43    
Maximum Humidity 73    
Minimum Humidity 16    
Precipitation  
Precipitation 0.00 in - - ()
Sea Level Pressure  
Sea Level Pressure 30.48 in    
Wind  
Wind Speed 4 mph (NNW)    
Max Wind Speed 15 mph    
Max Gust Speed 24 mph    
Visibility 10 miles    
Events      
Averages and records for this station are not official NWS values.
T = Trace of Precipitation, MM = Missing Value Source: NWS Daily Summary

Daily Weather History Graph

Daily Weather History Graph

Search for Another Location

Airport or City:

Trip Planner

Search our weather history database for the weather conditions in past years. The results will help you decide how hot, cold, wet, or windy it might be!

Date:

Astronomy

Jan. 15, 2014 Rise Set
Actual Time 7:23 AM MST 5:25 PM MST
Civil Twilight 6:56 AM MST 5:53 PM MST
Nautical Twilight 6:24 AM MST 6:24 PM MST
Astronomical Twilight 5:54 AM MST 6:55 PM MST
Moon 5:24 PM MST (1/15) 6:43 AM MST (1/15)
Length of Visible Light 10h 57m
Length of Day
10h 01m
Full, 100% of the Moon is Illuminated
Jan 15
Full
Jan 15
Full
Jan 23
Last Quarter
Jan 30
New
Feb 6
First Quarter

Hourly Weather History & Observations

Time (MST) Temp. Windchill Dew Point Humidity Pressure Visibility Wind Dir Wind Speed Gust Speed Precip Events Conditions
12:53 AM 16.0 °F - 5.0 °F 62% 30.53 in 10.0 mi Calm Calm - N/A   Clear
1:53 AM 17.1 °F - 6.1 °F 62% 30.50 in 10.0 mi Calm Calm - N/A   Clear
2:53 AM 12.0 °F - 3.0 °F 67% 30.52 in 10.0 mi Calm Calm - N/A   Clear
3:53 AM 10.9 °F 2.9 °F 3.0 °F 70% 30.51 in 10.0 mi ENE 4.6 mph - N/A   Clear
4:53 AM 12.9 °F 5.2 °F 3.9 °F 67% 30.52 in 10.0 mi ENE 4.6 mph - N/A   Clear
5:53 AM 14.0 °F 8.2 °F 6.1 °F 71% 30.63 in 10.0 mi East 3.5 mph - N/A   Clear
6:53 AM 10.9 °F 1.4 °F 3.9 °F 73% 30.68 in 10.0 mi ENE 5.8 mph - N/A   Clear
7:53 AM 12.9 °F - 5.0 °F 71% 30.69 in 10.0 mi Calm Calm - N/A   Clear
8:53 AM 23.0 °F - 10.0 °F 58% 30.67 in 10.0 mi Calm Calm - N/A   Clear
9:53 AM 32.0 °F - 12.9 °F 45% 30.60 in 10.0 mi Calm Calm - N/A   Clear
10:53 AM 41.0 °F 35.8 °F 15.1 °F 35% 30.52 in 10.0 mi West 8.1 mph - N/A   Clear
11:53 AM 48.9 °F - 15.1 °F 26% 30.43 in 10.0 mi WSW 5.8 mph - N/A   Clear
12:53 PM 53.1 °F - 12.9 °F 20% 30.36 in 10.0 mi West 9.2 mph - N/A   Clear
1:53 PM 55.0 °F - 10.0 °F 17% 30.31 in 10.0 mi NW 15.0 mph 24.2 mph N/A   Clear
2:53 PM 55.0 °F - 10.0 °F 17% 30.34 in 10.0 mi West 15.0 mph - N/A   Clear
3:53 PM 54.0 °F - 9.0 °F 17% 30.35 in 10.0 mi WNW 12.7 mph - N/A   Clear
4:53 PM 51.1 °F - 6.1 °F 16% 30.36 in 10.0 mi NW 11.5 mph - N/A   Clear
5:53 PM 42.1 °F 39.2 °F 6.1 °F 23% 30.42 in 10.0 mi NW 4.6 mph - N/A   Clear
6:53 PM 37.0 °F 34.5 °F 3.0 °F 24% 30.47 in 10.0 mi Variable 3.5 mph - N/A   Clear
7:53 PM 30.9 °F - 3.0 °F 31% 30.51 in 10.0 mi Calm Calm - N/A   Clear
8:53 PM 21.0 °F - -2.0 °F 36% 30.51 in 10.0 mi Calm Calm - N/A   Clear
9:53 PM 26.1 °F - 1.9 °F 35% 30.41 in 10.0 mi Calm Calm - N/A   Clear
10:53 PM 21.0 °F 12.4 °F 1.9 °F 44% 30.37 in 10.0 mi Variable 6.9 mph - N/A   Clear
11:53 PM 18.0 °F 9.8 °F 1.9 °F 50% 30.33 in 10.0 mi East 5.8 mph - N/A   Clear